Location: Observatoire
(46.1952°N, 5.3391°E)
Time: 13:39:28
(UTC+02:00)

CUTE 1.7 + AOD 2 - Pass Details

Date: 28 April 2024
Orbit: 569 x 586 km, 97.8° (Epoch: 25 May)

Event Time Altitude Azimuth Distance (km) Brightness Sun altitude
Rises 05:43:42 0° 7° (N) 2,786 ? -7.9°
Reaches altitude 10° 05:45:54 10° 2° (N) 1,882 ? -7.6°
Maximum altitude 05:49:48 47° 289° (WNW) 761 ? -7.0°
Drops below altitude 10° 05:53:41 10° 215° (SW) 1,866 ? -6.4°
Enters shadow 05:54:58 - 211° (SSW) 2,387 ? -6.2°
